This is the latest recevied weather packets stored in our database for station/object KC1IUC-15. If no packets are shown the sender has not sent any weather packets the latest 10 day(s).
| Time | Temp. | Humidity | Pressure | Rain* | Wind** | Luminosity | Snow |
|---|---|---|---|---|---|---|---|
| 1778166603 | 14.44° C | 34% | 1010.3 hPa | 0 mm | - | 676 W/m² | - |
| 1778166303 | 13.89° C | 36% | 1010.3 hPa | 0 mm | - | 669 W/m² | - |
| 1778166003 | 13.89° C | 35% | 1010.3 hPa | 0 mm | - | 662 W/m² | - |
| 1778165704 | 13.33° C | 34% | 1010.3 hPa | 0 mm | - | 655 W/m² | - |
| 1778165404 | 13.33° C | 36% | 1010.3 hPa | 0 mm | - | 643 W/m² | - |
| 1778165103 | 13.89° C | 35% | 1010.3 hPa | 0 mm | - | 634 W/m² | - |
| 1778164803 | 13.89° C | 35% | 1010.3 hPa | 0 mm | - | 625 W/m² | - |
| 1778164503 | 13.33° C | 36% | 1010.6 hPa | 0 mm | - | 615 W/m² | - |
| 1778164204 | 13.89° C | 36% | 1010.3 hPa | 0 mm | - | 606 W/m² | - |
| 1778163904 | 13.33° C | 38% | 1010.3 hPa | 0 mm | - | 597 W/m² | - |
| 1778163603 | 13.33° C | 38% | 1010.3 hPa | 0 mm | - | 588 W/m² | - |
| 1778163304 | 13.33° C | 37% | 1010.3 hPa | 0 mm | - | 579 W/m² | - |
| 1778163003 | 13.33° C | 37% | 1010.6 hPa | 0 mm | - | 570 W/m² | - |
| 1778162704 | 13.33° C | 37% | 1010.6 hPa | 0 mm | - | 559 W/m² | - |
| 1778162404 | 12.78° C | 37% | 1010.6 hPa | 0 mm | - | 546 W/m² | - |
| 1778162103 | 13.33° C | 37% | 1010.6 hPa | 0 mm | - | 534 W/m² | - |
| 1778161803 | 12.78° C | 39% | 1010.6 hPa | 0 mm | - | 519 W/m² | - |
| 1778161504 | 12.22° C | 39% | 1010.6 hPa | 0 mm | - | 505 W/m² | - |
| 1778161204 | 12.78° C | 39% | 1010.6 hPa | 0 mm | - | 489 W/m² | - |
| 1778160903 | 12.22° C | 41% | 1010.3 hPa | 0 mm | - | 471 W/m² | - |
| 1778160603 | 12.22° C | 41% | 1010.6 hPa | 0 mm | - | 428 W/m² | - |
| 1778160304 | 11.67° C | 44% | 1010.3 hPa | 0 mm | - | 338 W/m² | - |
| 1778160003 | 11.67° C | 44% | 1010.6 hPa | 0 mm | - | 294 W/m² | - |
| 1778159704 | 11.67° C | 43% | 1010.3 hPa | 0 mm | - | 258 W/m² | - |
| 1778159403 | 11.67° C | 43% | 1010.3 hPa | 0 mm | - | 201 W/m² | - |
* Rain latest hour (hover to see other rain measurements)
** Current wind speed in m/s (hover to see current wind gust speed)